FW7124 Weather Reports


time (UTC)temp
C
wind
direction
speed
KPH
gust
KPH
rain 1hr
cm
rain 24hr
cm
rain mn
cm
humidity
%
barometer
mb
20260507103536 15 26 0.0 4.8 0.00 0.00 0.00 51 1016.7
20260507102539 16 110 1.6 12.9 0.00 0.00 0.00 49 1016.8
20260507101533 16 148 1.6 11.3 0.00 0.00 0.00 47 1016.8
20260507095535 15 64 0.0 3.2 0.00 0.00 0.00 54 1017.0
20260507094533 15 86 0.0 6.4 0.00 0.00 0.00 56 1016.9
20260507093533 15 81 1.6 8.0 0.00 0.00 0.00 59 1017.0
20260507093026 15 109 1.6 6.4 0.00 0.00 0.00 59 1017.0
20260507092022 14 74 1.6 8.0 0.00 0.00 0.00 62 1017.0
20260507091015 13 125 1.6 8.0 0.00 0.00 0.00 65 1017.0
20260507085532 13 116 1.6 8.0 0.00 0.00 0.00 67 1017.1
20260507084527 13 164 1.6 4.8 0.00 0.00 0.00 72 1017.1
20260507083524 12 152 1.6 4.8 0.00 0.00 0.00 75 1017.0
20260507082523 12 70 0.0 3.2 0.00 0.00 0.00 78 1016.9
20260507081522 11 94 0.0 3.2 0.00 0.00 0.00 80 1016.9
20260507080521 10 127 0.0 3.2 0.00 0.00 0.00 82 1017.0
20260507075522 10 109 0.0 3.2 0.00 0.00 0.00 84 1016.9
20260507073519 8 94 0.0 3.2 0.00 0.00 0.00 87 1016.9
20260507072517 8 126 0.0 3.2 0.00 0.00 0.00 90 1016.8
20260507071517 7 112 0.0 3.2 0.00 0.00 0.00 91 1016.8
20260507070518 6 136 0.0 3.2 0.00 0.00 0.00 92 1016.7
20260507065515 6 136 0.0 3.2 0.00 0.00 0.00 94 1016.9
20260507064515 6 5 0.0 0.0 0.00 0.00 0.00 94 1016.9
20260507063514 5 5 0.0 0.0 0.00 0.00 0.00 95 1016.9
20260507062513 5 5 0.0 0.0 0.00 0.00 0.00 95 1016.8
20260507061514 4 5 0.0 0.0 0.00 0.00 0.00 95 1016.7
20260507060511 3 5 0.0 0.0 0.00 0.00 0.00 94 1016.6
20260507055511 3 5 0.0 0.0 0.00 0.00 0.00 93 1016.6
20260507054512 3 5 0.0 0.0 0.00 0.00 0.00 93 1016.5
20260507053511 3 5 0.0 0.0 0.00 0.00 0.00 92 1016.5
20260507052511 3 5 0.0 0.0 0.00 0.00 0.00 92 1016.4
20260507051728 3 5 0.0 0.0 0.00 0.00 0.00 92 1016.3
20260507051615 3 5 0.0 0.0 0.00 0.00 0.00 92 1016.4
20260507045518 3 5 0.0 0.0 0.00 0.00 0.00 92 1016.3
20260507044508 3 5 0.0 0.0 0.00 0.00 0.00 91 1016.2
20260507043509 3 5 0.0 0.0 0.00 0.00 0.00 91 1016.3
20260507042508 3 5 0.0 0.0 0.00 0.00 0.00 91 1016.3
20260507041508 3 5 0.0 0.0 0.00 0.00 0.00 91 1016.3
20260507040507 3 5 0.0 0.0 0.00 0.00 0.00 92 1016.4
20260507035502 3 5 0.0 0.0 0.00 0.00 0.00 91 1016.4
20260507034459 3 5 0.0 0.0 0.00 0.00 0.00 90 1016.4
20260507033459 3 5 0.0 0.0 0.00 0.00 0.00 90 1016.3
20260507032941 3 5 0.0 0.0 0.00 0.00 0.00 90 1016.3
20260507031455 3 5 0.0 0.0 0.00 0.00 0.00 90 1016.4
20260507030453 3 5 0.0 0.0 0.00 0.00 0.00 90 1016.4
20260507025936 3 5 0.0 0.0 0.00 0.00 0.00 90 1016.4
20260507024453 3 5 0.0 0.0 0.00 0.00 0.00 90 1016.3
20260507023449 3 5 0.0 0.0 0.00 0.00 0.00 90 1016.3
20260507022449 3 5 0.0 0.0 0.00 0.00 0.00 89 1016.3
20260507021450 4 5 0.0 0.0 0.00 0.00 0.00 89 1016.4
20260507020449 4 5 0.0 0.0 0.00 0.00 0.00 89 1016.3
20260507015445 4 5 0.0 0.0 0.00 0.00 0.00 89 1016.1
20260507014445 4 5 0.0 0.0 0.00 0.00 0.00 89 1016.2
20260507013445 4 5 0.0 0.0 0.00 0.00 0.00 89 1016.2
20260507012443 4 5 0.0 0.0 0.00 0.00 0.00 88 1016.1
20260507011439 4 5 0.0 0.0 0.00 0.00 0.00 88 1016.1
20260507010436 5 5 0.0 0.0 0.00 0.00 0.00 88 1016.1
20260507005437 5 5 0.0 0.0 0.00 0.00 0.00 88 1016.2
20260507004435 5 5 0.0 0.0 0.00 0.00 0.00 87 1016.1
20260507003433 5 5 0.0 0.0 0.00 0.00 0.00 87 1016.1
20260507002432 5 5 0.0 0.0 0.00 0.00 0.00 87 1016.2
20260507001431 5 5 0.0 0.0 0.00 0.00 0.00 85 1016.2
20260507000432 5 5 0.0 0.0 0.00 0.00 0.00 85 1016.2
20260506235917 5 5 0.0 0.0 0.00 0.00 0.00 84 1016.2
20260506234430 6 5 0.0 0.0 0.00 0.00 0.00 83 1016.1
20260506233430 6 5 0.0 0.0 0.00 0.00 0.00 82 1016.0
20260506232428 6 5 0.0 0.0 0.00 0.00 0.00 81 1016.0
20260506231429 6 11 0.0 0.0 0.00 0.00 0.00 81 1016.0
20260506225425 6 15 0.0 0.0 0.00 0.00 0.00 80 1015.9
20260506224425 7 18 0.0 0.0 0.00 0.00 0.00 79 1015.9
20260506223905 7 0 0.0 0.0 0.00 0.00 0.00 77 1015.8
20260506222423 7 17 0.0 0.0 0.00 0.00 0.00 77 1015.8
20260506221900 7 12 0.0 0.0 0.00 0.00 0.00 75 1015.7
20260506220415 7 17 0.0 0.0 0.00 0.00 0.00 74 1015.8
20260506215900 8 0 0.0 0.0 0.00 0.00 0.00 72 1015.6
20260506214415 8 0 0.0 0.0 0.00 0.00 0.00 72 1015.6
20260506213413 8 17 0.0 0.0 0.00 0.00 0.00 72 1015.6
20260506212411 8 0 0.0 0.0 0.00 0.00 0.00 72 1015.5
20260506211904 9 5 0.0 0.0 0.00 0.00 0.00 71 1015.5
20260506210852 9 5 0.0 0.0 0.00 0.00 0.00 70 1015.4
20260506205416 10 5 0.0 0.0 0.00 0.00 0.00 69 1015.3
20260506204409 10 5 0.0 0.0 0.00 0.00 0.00 70 1015.3
20260506202408 10 5 0.0 0.0 0.00 0.00 0.00 69 1015.1
20260506201408 10 5 0.0 0.0 0.00 0.00 0.00 68 1015.0
20260506200409 11 5 0.0 0.0 0.00 0.00 0.00 68 1014.9
20260506195407 11 5 0.0 1.6 0.00 0.00 0.00 65 1014.9
20260506194408 11 5 0.0 1.6 0.00 0.00 0.00 68 1014.8
20260506193403 11 5 0.0 1.6 0.00 0.00 0.00 66 1014.7
20260506192404 11 5 0.0 1.6 0.00 0.00 0.00 66 1014.6
20260506191403 11 355 0.0 1.6 0.00 0.00 0.00 66 1014.6
20260506190401 11 355 0.0 1.6 0.00 0.00 0.00 65 1014.6
20260506185900 11 25 0.0 1.6 0.00 0.00 0.00 64 1014.5
20260506184405 11 25 0.0 3.2 0.00 0.00 0.00 63 1014.4
20260506183359 12 50 0.0 3.2 0.00 0.00 0.00 63 1014.3
20260506182358 12 61 0.0 1.6 0.00 0.00 0.00 64 1014.4
20260506181359 12 33 0.0 0.0 0.00 0.00 0.00 65 1014.3
20260506180358 12 33 0.0 0.0 0.00 0.00 0.00 64 1014.2
20260506175401 12 33 0.0 0.0 0.00 0.00 0.00 63 1014.1
20260506174842 12 33 0.0 3.2 0.00 0.00 0.00 61 1013.9
20260506173358 12 38 0.0 3.2 0.00 0.00 0.00 62 1013.8
20260506172357 12 9 0.0 4.8 0.00 0.00 0.00 62 1013.9
20260506171356 13 70 0.0 4.8 0.00 0.00 0.00 57 1013.7
20260506170356 12 50 0.0 1.6 0.00 0.00 0.00 59 1013.8
20260506165356 12 81 0.0 0.0 0.00 0.00 0.00 59 1013.7
20260506164356 12 81 0.0 4.8 0.00 0.00 0.00 60 1013.7
20260506163354 12 55 0.0 4.8 0.00 0.00 0.00 60 1013.8
20260506162904 12 13 0.0 3.2 0.00 0.00 0.00 59 1013.8
20260506161354 13 13 1.6 4.8 0.00 0.00 0.00 58 1013.8
20260506160354 13 355 0.0 3.2 0.00 0.00 0.00 57 1013.8
20260506155353 13 33 0.0 3.2 0.00 0.00 0.00 56 1013.8
20260506154352 13 57 1.6 4.8 0.00 0.00 0.00 56 1013.9
20260506153354 13 342 1.6 4.8 0.00 0.00 0.00 55 1013.9
20260506152349 14 20 1.6 4.8 0.00 0.00 0.00 54 1013.9
20260506151350 15 24 1.6 4.8 0.00 0.00 0.00 52 1013.8
20260506150348 15 350 1.6 3.2 0.00 0.00 0.00 50 1013.8
20260506145347 15 53 0.0 4.8 0.00 0.00 0.00 50 1013.8
20260506144347 15 329 1.6 4.8 0.00 0.00 0.00 48 1013.9
20260506143345 14 343 0.0 1.6 0.00 0.00 0.00 50 1013.8
20260506142345 14 351 1.6 6.4 0.00 0.00 0.00 49 1013.8
20260506141344 15 348 1.6 8.0 0.00 0.00 0.00 52 1013.8
20260506140344 15 5 1.6 4.8 0.00 0.00 0.00 49 1013.9
20260506135345 16 22 0.0 4.8 0.00 0.00 0.00 48 1013.9
20260506134342 16 329 1.6 4.8 0.00 0.00 0.00 46 1013.9
20260506133341 16 5 1.6 4.8 0.00 0.00 0.00 52 1014.0
20260506132342 15 53 1.6 3.2 0.00 0.00 0.00 49 1013.8
20260506131340 15 346 1.6 4.8 0.00 0.00 0.00 52 1013.9
20260506130341 15 247 1.6 4.8 0.00 0.00 0.00 54 1014.1
20260506125340 15 16 1.6 4.8 0.00 0.00 0.00 54 1014.1
20260506124340 15 245 1.6 6.4 0.00 0.00 0.00 52 1014.1
20260506123341 15 50 1.6 8.0 0.00 0.00 0.00 55 1014.1
20260506122341 13 17 0.0 4.8 0.00 0.00 0.00 56 1014.2
20260506121340 13 5 1.6 4.8 0.00 0.00 0.00 53 1014.2
20260506120340 13 22 1.6 4.8 0.00 0.00 0.00 55 1014.2
20260506115340 14 330 0.0 4.8 0.00 0.00 0.00 57 1014.3
20260506114341 13 346 0.0 4.8 0.00 0.00 0.00 58 1014.4
20260506113822 13 51 1.6 6.4 0.00 0.00 0.00 58 1014.4
20260506112338 13 40 1.6 8.0 0.00 0.00 0.00 58 1014.5
20260506111338 13 24 1.6 12.9 0.00 0.00 0.00 58 1014.5
20260506110336 13 81 1.6 11.3 0.00 0.00 0.00 59 1014.4
20260506105336 13 11 1.6 11.3 0.00 0.00 0.00 59 1014.5
20260506104332 13 329 1.6 4.8 0.00 0.00 0.00 56 1014.5